THAICOM 5

Last updated on Nov. 19, 2019, 4:25 a.m. UTC

1 29163U 06020B   19322.83826168 -.00000118  00000-0  00000+0 0  9998
2 29163   0.0520 114.4937 0008051 147.6627 175.7340  1.00269786 49443
UTC
Height (km)
Latitude
Longitude
Inclination
Orbital Period
UTC large
Height (km)
Speed (km/s)
/
Latitude / Longitude
Inclination (degrees)
Orbital Period (minutes)
Azimuth
Elevation
Range (km)
Doppler Factor
iOS Compass Heading
iOS Angle

Next 30 passes for location: Hong Kong

Rise time Rise Azimuth (degrees) Set time Set Azimuth (degrees) Duration Max altitude (degrees)

No matching passes for this satellites